[[{"header":{"parameterUnit":"m.s-1","parameterCategory":1,"la1":30.2991,"la2":30.254,"lo1":-89.0895,"lo2":-89.0444,"dy":0.0017,"dx":0.0017,"nx":28,"ny":28,"refTime":"2025-11-07T03:00:00:Z","depth":0,"parameterNumber":2,"parameterNumberName":"U-component_of_WINDS"},"data":[0,0,0,0,0,0,0,0,0,0,0,0,0,0,0,0,0,0,0,0,0,0,0,0,0,0,0,0,0,0,0,0,0,0,0,0,0,0,0,0,0,0,0,0,0,0,0,0,0,0,0,0,0,0,0,0,0,0,3.498,3.4982,0,3.5132,3.5133,3.5135,3.5103,3.51,3.5098,3.5095,3.5256,3.5263,3.5269,0,0,0,0,0,0,0,0,0,0,0,0,0,3.4671,3.4677,3.498,3.4982,3.4984,3.5131,3.5133,3.5136,3.5104,3.51,3.5097,3.5094,3.5254,3.5262,3.527,0,0,0,0,0,0,0,0,0,0,0,0,0,3.4812,3.4679,3.498,3.4986,3.4988,3.5131,3.5133,3.5136,3.5105,3.51,3.5096,3.5092,3.5251,3.5261,3.5271,3.542,0,0,3.5303,3.5307,0,0,0,0,0,0,0,0,3.4804,3.4824,3.4983,3.4985,3.4988,3.5094,3.5083,3.5231,3.5106,3.506,3.5095,3.509,3.5206,3.522,3.5258,3.5427,3.5434,3.5304,3.531,3.5315,3.5317,0,0,0,0,0,0,0,3.4795,3.4817,3.504,3.4985,3.4988,3.4983,3.4999,3.5111,3.5155,3.5064,3.5062,3.508,3.5206,3.5248,3.5261,3.5436,3.5303,3.5313,3.5319,3.5323,3.5741,3.5745,0,0,0,0,0,0,3.4782,3.4809,3.5035,3.5045,3.4884,3.4992,3.501,3.5064,3.5154,3.5163,3.5084,3.5078,3.5232,3.5249,3.5267,3.5449,3.5314,3.5324,3.533,3.5736,3.5742,3.5747,0,0,0,0,0,0,3.4775,3.4802,3.5029,3.4927,3.4955,3.5002,3.5064,3.507,3.5111,3.5168,3.5177,3.5117,3.5229,3.5252,3.5383,3.5454,3.5329,3.5338,3.573,3.5738,3.5744,3.5813,0,0,0,0,0,0,3.4766,3.48,3.4855,3.4928,3.4961,3.514,3.5068,3.5076,3.5128,3.5122,3.5202,3.5211,3.5228,3.5367,3.5393,3.5466,3.5346,3.5724,3.5733,3.5742,3.5805,3.5822,3.5837,0,0,0,0,0,3.4755,3.4868,3.4857,3.4885,3.503,3.5144,3.5163,3.5178,3.5134,3.5191,3.5229,3.5209,3.5442,3.5381,3.5409,3.5487,3.5719,3.5731,3.5741,3.5798,3.5819,3.5836,0,0,0,0,0,0,3.4803,3.4878,3.4867,3.5006,3.5069,3.5138,3.521,3.5199,3.5277,3.5269,3.5286,3.5305,3.5438,3.5476,3.5406,3.5638,3.5575,3.5592,3.5608,3.5628,3.5644,3.5633,3.5355,0,0,0,0,0,3.4829,3.4914,3.4976,3.5093,3.5125,3.5163,3.5213,3.5219,3.5286,3.5313,3.536,3.5427,3.5516,3.5574,3.5659,3.581,3.5829,3.5878,3.5894,3.5907,3.5922,3.6009,3.6032,3.5783,3.5783,3.5783,0,0,3.4885,3.4937,3.4989,3.5104,3.5153,3.5244,3.5185,3.5282,3.535,3.5328,3.5454,3.5492,3.5569,3.5711,3.5776,3.5746,3.5995,3.5921,3.5931,3.5939,3.6022,3.6046,3.6067,3.5791,3.5789,3.5788,0,0,3.5033,3.5079,3.5183,3.5235,3.531,3.5335,3.5361,3.5433,3.5457,3.5584,3.557,3.5653,3.5805,3.5861,3.5909,3.6084,3.607,3.6111,3.6194,3.6279,3.6298,3.6316,3.6381,3.6403,3.6126,3.6126,3.6126,0,3.5093,3.5226,3.5239,3.5338,3.5391,3.5375,3.5483,3.5532,3.5633,3.5671,3.5636,3.5828,3.5879,3.6036,3.6078,3.6117,3.615,3.6101,3.6294,3.6312,3.6329,3.6391,3.6415,3.613,3.613,3.6129,3.6129,0,3.5298,3.5391,3.5467,3.5563,3.5624,3.5727,3.5759,3.582,3.5822,3.5852,3.5984,3.6044,3.6142,3.618,3.6183,3.634,3.6319,3.6289,3.6227,3.6357,3.6415,3.6439,3.6137,3.6135,3.6134,3.6133,0,0,3.5477,3.5582,3.561,3.5655,3.5739,3.5813,3.5917,3.6012,3.6066,3.6137,3.6227,3.6358,3.6332,3.6387,3.6397,3.6471,3.6609,3.6432,3.6434,3.6465,3.6789,3.6811,3.6838,3.66,3.6605,3.6608,3.6783,0,3.5634,3.5816,3.5832,3.5997,3.6085,3.6073,3.6165,3.6229,3.626,3.6342,3.6378,3.6471,3.6428,3.6462,3.6535,3.6576,3.6674,3.6564,3.6687,3.6691,3.6669,3.6868,3.6892,3.7053,3.6805,3.6809,3.6812,0,3.584,3.5917,3.609,3.6165,3.6203,3.6285,3.6375,3.6453,3.6527,3.6545,3.6609,3.661,3.6721,3.6655,3.6811,3.6736,3.6788,3.6816,3.6823,3.6835,3.676,3.6888,3.7105,3.7129,3.6848,3.6845,3.6843,0,3.5956,3.6103,3.6226,3.6265,3.6356,3.6414,3.6455,3.6525,3.6582,3.6663,3.6701,3.6794,3.6845,3.6918,3.6946,3.6895,3.7103,3.7037,3.7123,3.7123,3.7167,3.7164,3.7397,3.7199,3.7199,3.7199,3.7198,0,3.613,3.6237,3.628,3.6356,3.6477,3.6497,3.6617,3.6656,3.6718,3.6804,3.6801,3.6882,3.6913,3.7001,3.7024,3.7152,3.7174,3.7195,3.72,3.7195,3.7193,3.723,3.722,3.7205,3.7204,3.7202,3.7201,0,3.6279,3.6312,3.6446,3.6522,3.6544,3.663,3.6696,3.6771,3.6803,3.6912,3.6939,3.699,3.7093,3.7128,3.7254,3.727,3.7419,3.7414,3.7393,3.7394,3.7479,3.7471,3.7744,3.7782,3.7559,3.7561,3.7562,0,3.6387,3.6469,3.6555,3.6611,3.6654,3.6745,3.6804,3.6829,3.6891,3.6984,3.7049,3.7152,3.7234,3.7401,3.7451,3.7548,3.7546,3.7635,3.7561,3.7555,3.755,3.7545,3.7555,3.7649,3.7651,3.7653,3.7655,0,3.6578,3.6591,3.6675,3.6766,3.6837,3.691,3.6981,3.7029,3.7065,3.7136,3.7241,3.7305,3.7434,3.7537,3.7637,3.7683,3.7677,3.7678,3.7704,3.77,3.7686,3.7697,3.7433,3.7672,3.767,3.7669,3.7668,3.7667,3.6711,3.6785,3.6857,3.6952,3.7008,3.7076,3.7151,3.7193,3.7281,3.7386,3.7397,3.7511,3.7588,3.7721,3.7772,3.7864,3.7839,3.7876,3.7885,3.7894,3.7901,3.7671,3.7882,3.7882,3.7881,3.7881,3.7881,0,3.6902,3.6949,3.7036,3.7136,3.7213,3.7199,3.7278,3.7344,3.7444,3.7515,3.7597,3.772,3.7821,3.788,3.7982,3.8045,3.8045,3.8071,3.8067,3.8079,3.7916,3.7885,3.807,3.807,3.807,3.807,3.807,3.807,3.7011,3.7136,3.7158,3.7313,3.736,3.747,3.7517,3.7581,3.7638,3.7776,3.7859,3.7897,3.7965,3.8072,3.8166,3.8181,3.822,3.8249,3.8262,3.8109,3.809,3.8071,3.8042,3.8256,3.8257,3.8417,3.8418,3.8419]},{"header":{"parameterUnit":"m.s-1","parameterCategory":1,"la1":30.2991,"la2":30.254,"lo1":-89.0895,"lo2":-89.0444,"dy":0.0017,"dx":0.0017,"nx":28,"ny":28,"refTime":"2025-11-07T03:00:00:Z","depth":0,"parameterNumber":3,"parameterNumberName":"V-component_of_WINDS"},"data":[0,0,0,0,0,0,0,0,0,0,0,0,0,0,0,0,0,0,0,0,0,0,0,0,0,0,0,0,0,0,0,0,0,0,0,0,0,0,0,0,0,0,0,0,0,0,0,0,0,0,0,0,0,0,0,0,0,0,1.7352,1.7354,0,1.7474,1.7475,1.7477,1.7477,1.7476,1.7474,1.7473,1.7603,1.7608,1.7613,0,0,0,0,0,0,0,0,0,0,0,0,0,1.7126,1.7131,1.7352,1.7354,1.7355,1.7474,1.7476,1.7477,1.7478,1.7476,1.7474,1.7472,1.7602,1.7608,1.7614,0,0,0,0,0,0,0,0,0,0,0,0,0,1.7234,1.7132,1.7352,1.737,1.7372,1.7473,1.7476,1.7478,1.7478,1.7476,1.7473,1.7471,1.76,1.7607,1.7614,1.7708,0,0,1.7637,1.764,0,0,0,0,0,0,0,0,1.7228,1.7242,1.7365,1.7369,1.7372,1.7458,1.7444,1.7555,1.7479,1.7438,1.7473,1.747,1.7557,1.7568,1.7596,1.7714,1.772,1.7638,1.7642,1.7646,1.7648,0,0,0,0,0,0,0,1.7221,1.7237,1.7401,1.7367,1.7371,1.7374,1.7386,1.7465,1.751,1.7441,1.7442,1.7456,1.7559,1.7589,1.7599,1.7722,1.7638,1.7644,1.7649,1.7652,1.7925,1.7928,0,0,0,0,0,0,1.7209,1.7231,1.7397,1.7404,1.7292,1.738,1.7394,1.7433,1.7509,1.7518,1.7458,1.7455,1.7578,1.7591,1.7604,1.7721,1.7645,1.7652,1.7657,1.7922,1.7926,1.7929,0,0,0,0,0,0,1.7204,1.7223,1.7392,1.7318,1.7339,1.7386,1.743,1.7436,1.7467,1.7521,1.753,1.748,1.7576,1.7594,1.7682,1.7725,1.7656,1.7663,1.7919,1.7923,1.7927,1.7953,0,0,0,0,0,0,1.7197,1.7222,1.7256,1.7318,1.7343,1.7466,1.7432,1.7441,1.7479,1.7477,1.7545,1.7554,1.7576,1.7671,1.769,1.7734,1.7668,1.7915,1.7921,1.7926,1.7949,1.7958,1.7965,0,0,0,0,0,1.7189,1.7259,1.7258,1.7278,1.7387,1.7468,1.7483,1.7505,1.7482,1.7519,1.7554,1.7551,1.7717,1.768,1.7701,1.7748,1.7913,1.7919,1.7925,1.7945,1.7956,1.7965,0,0,0,0,0,0,1.7203,1.7268,1.7267,1.7359,1.7408,1.7468,1.7515,1.7516,1.7574,1.757,1.7597,1.7613,1.7702,1.7734,1.7692,1.7844,1.7812,1.7823,1.782,1.7831,1.7839,1.7831,1.7675,0,0,0,0,0,1.7216,1.7275,1.7329,1.7405,1.743,1.7468,1.7504,1.7517,1.757,1.7591,1.7633,1.7686,1.775,1.7792,1.7854,1.7953,1.7969,1.7996,1.8004,1.8011,1.802,1.8078,1.8091,1.7949,1.7949,1.7949,0,0,1.7245,1.7288,1.7323,1.7409,1.7449,1.7511,1.7486,1.7552,1.76,1.7602,1.7689,1.7721,1.7782,1.7877,1.7921,1.7906,1.8063,1.8019,1.8023,1.803,1.8086,1.8099,1.8111,1.7954,1.7953,1.7952,0,0,1.733,1.7367,1.7435,1.7475,1.7535,1.756,1.7576,1.7637,1.7658,1.7744,1.7748,1.7806,1.7915,1.7959,1.7996,1.8099,1.81,1.8118,1.8163,1.8218,1.8229,1.8239,1.8278,1.8292,1.8127,1.8127,1.8127,0,1.7359,1.7451,1.7471,1.7538,1.7577,1.758,1.7651,1.7689,1.7767,1.7795,1.7777,1.7915,1.7956,1.8063,1.8088,1.8116,1.8138,1.8111,1.8225,1.8236,1.8246,1.8283,1.8298,1.8129,1.8129,1.8129,1.8129,0,1.7485,1.7549,1.7598,1.7671,1.7715,1.7784,1.7816,1.7859,1.7868,1.7896,1.7985,1.8035,1.8108,1.8133,1.8144,1.8242,1.8232,1.8219,1.8188,1.8261,1.8297,1.8311,1.8132,1.8131,1.8131,1.813,0,0,1.7583,1.7666,1.7684,1.7718,1.7784,1.7836,1.7905,1.7975,1.8012,1.8066,1.8127,1.822,1.8209,1.8251,1.8266,1.8314,1.8395,1.8297,1.8298,1.8315,1.851,1.8521,1.8537,1.8395,1.8398,1.84,1.8506,0,1.7677,1.7799,1.7819,1.7928,1.7989,1.7993,1.8054,1.8103,1.8131,1.8189,1.822,1.8286,1.8265,1.8291,1.8339,1.8375,1.8435,1.8368,1.8456,1.8459,1.8443,1.8555,1.8566,1.8663,1.852,1.8522,1.8524,0,1.7803,1.7858,1.7972,1.8032,1.8058,1.8113,1.8179,1.8233,1.829,1.8307,1.8353,1.8363,1.8439,1.8402,1.8508,1.8462,1.8499,1.8523,1.8527,1.8538,1.8497,1.8572,1.8695,1.871,1.8546,1.8544,1.8542,0,1.7866,1.7969,1.8051,1.808,1.8151,1.819,1.8221,1.8275,1.8316,1.8374,1.8402,1.8469,1.8506,1.8559,1.8588,1.8558,1.8693,1.8658,1.8712,1.8711,1.8742,1.874,1.8875,1.8761,1.8761,1.8761,1.8761,0,1.797,1.804,1.8081,1.8132,1.8211,1.8234,1.8314,1.8345,1.8393,1.8451,1.8459,1.8514,1.8547,1.8609,1.8631,1.8717,1.8734,1.8752,1.8758,1.8753,1.8751,1.8779,1.8774,1.8765,1.8764,1.8763,1.8763,0,1.8054,1.8084,1.8174,1.8233,1.825,1.8307,1.8359,1.841,1.8437,1.8511,1.853,1.8574,1.8647,1.868,1.8769,1.8785,1.8884,1.8883,1.8864,1.8867,1.8919,1.8915,1.9079,1.9103,1.8972,1.8973,1.8974,0,1.812,1.8174,1.8239,1.8278,1.831,1.8373,1.8415,1.844,1.8484,1.8553,1.8596,1.8668,1.8727,1.8843,1.8885,1.8954,1.8957,1.901,1.8968,1.8962,1.8962,1.8959,1.8966,1.9019,1.902,1.9021,1.9022,0,1.8234,1.8246,1.8305,1.837,1.8419,1.8471,1.8523,1.8555,1.8589,1.8638,1.8711,1.8757,1.8848,1.8921,1.8993,1.9028,1.9033,1.9034,1.9051,1.9048,1.9035,1.9046,1.8888,1.9031,1.903,1.9029,1.9029,1.9029,1.8313,1.8362,1.8416,1.8482,1.8523,1.8571,1.8622,1.8656,1.8716,1.8792,1.8803,1.8882,1.8939,1.9036,1.9074,1.9138,1.9125,1.9149,1.9155,1.9161,1.9166,1.9023,1.9151,1.915,1.915,1.915,1.915,0,1.843,1.8464,1.8525,1.8596,1.8649,1.8645,1.8702,1.8747,1.8816,1.8867,1.8925,1.9011,1.9081,1.9128,1.92,1.9243,1.9247,1.9261,1.926,1.9268,1.9171,1.9151,1.9257,1.9257,1.9257,1.9257,1.9257,1.9257,1.8497,1.8581,1.8599,1.8704,1.8739,1.8815,1.8848,1.8894,1.8935,1.903,1.9088,1.9117,1.9168,1.9244,1.931,1.9322,1.9349,1.9365,1.9377,1.9286,1.9275,1.9264,1.9246,1.937,1.937,1.947,1.9471,1.9471]}]]